Location: Arbocrest Acres
(39.2134°N, 84.4144°W)
Time: 09:00:27
(UTC+00:00)

X-37B - Pass Details

Date: 11 December 2022
Orbit: 277 x 277 km, 45.0° (Epoch: 01 November)

Event Time Altitude Azimuth Distance (km) Brightness Sun altitude
Rises 23:31:16 0° 281° (W) 1,913 5.2 -14.4°
Reaches altitude 10° 23:33:25 10° 298° (WNW) 1,101 3.5 -14.8°
Maximum altitude 23:35:24 21° 353° (N) 688 1.7 -15.1°
Enters shadow 23:35:31 21° 357° (N) 690 1.7 -15.1°
